星链-6248 (STARLINK-6248 )

导读 | 豆包AI

STARLINK-6248是美国SpaceX公司星链(Starlink)卫星互联网星座的一员,于2023年6月22日发射入轨。星链项目计划在近地轨道部署数万颗卫星,旨在为全球偏远地区提供低延迟高速宽带互联网服务,截至2023年10月已有超5000颗星链卫星入轨。STARLINK-6248属于星链第二代卫星,配备激光星间链路,可实现高速星际传输,助力星座完成全球连续覆盖,为用户提供稳定互联网接入服务,推动卫星互联网商业化发展。

Basic Information
目录编号:
57082
目录名称:
STARLINK-6248
国际标识:
2023-088AL
轨道中心:
EARTH
卫星名称:
星链-6248
卫星全名:
星链-6248 (STARLINK-6248 )
卫星状态:
在轨 (已飞行1043 天)
发射日期:
2023-06-22 UTC
国别 :
美国 (US)
星等 :
--
Orbit Information
数据来源 国际轨道数据 AOE轨道数据
星历时间 2026-04-30T11:29:00+0800
5小时前
查看轨道信息
2026-04-28T07:00:00+0800
2天前
查看轨道信息
半长轴 6861.203km 6861.174km
偏心率 0.0001677 0.0000023
轨道倾角 43.000° 43.001°
近地点辐角 272.283° 4.779°
升交点赤经 165.198° 177.551°
平近点角 87.783° 195.386°
近地点 481.915km 483.021km
远地点 484.217km 483.053km
周期 94.267分钟 94.266分钟
每日圈数 15.275745 15.275841
Detailed Information
固有亮度:
5
最大亮度:
2.4
卫星平台:
Starlink v1.5
覆盖范围:
全球
运营商:
太空探索技术公司
运营商所在国:
美国
制造商(研发单位):
太空探索技术公司
制造商所在国:
美国
使用方式:
暂无
Satellite Introduction
星链(Starlink)计划是由太空探索技术公司(SpaceX)提出的一个巨型低轨卫星互联网星座项目,计划在2019年至2024年间在太空搭建由约1.2万颗卫星组成的“星链”网络,其中1584颗将部署在地球上空550千米处的近地轨道,并从2020年开始工作。该卫星仍在工作。
2D Orbit Map
3D Orbit Map
Orbit Altitude Analysis Chart
Orbit Inclination Analysis Chart
Orbit Comprehensive Analysis Chart
View Comprehensive Chart